Weather History for Marathon, FL

Change the Weather History Date:

Friday, December 14, 2012

  Actual Average Record
Temperature  
Mean Temperature 75 °F 72 °F  
Max Temperature 79 °F 77 °F 86 °F (2007)
Min Temperature 70 °F 67 °F 44 °F (2010)
Degree Days  
Heating Degree Days 0 1  
Month to date heating degree days 0 7  
Since 1 July heating degree days 1 8  
Cooling Degree Days 10 8  
Month to date cooling degree days 168 119  
Year to date cooling degree days 5153 4883  
Growing Degree Days 24 (Base 50)    
Moisture  
Dew Point 64 °F    
Average Humidity 71    
Maximum Humidity 84    
Minimum Humidity 58    
Precipitation  
Precipitation 0.00 in 0.07 in 0.56 in (2003)
Month to date precipitation 0.29 0.92  
Year to date precipitation 44.37 45.07  
Snow  
Snow 0.00 in - - ()
Month to date snowfall 0.0  
Since 1 July snowfall 0.0  
Snow Depth 0.00 in    
Sea Level Pressure  
Sea Level Pressure 30.07 in    
Wind  
Wind Speed 12 mph (NNE)    
Max Wind Speed 21 mph    
Max Gust Speed 25 mph    
Visibility 10 miles    
Events      
T = Trace of Precipitation, MM = Missing Value Source: NWS Daily Summary

Daily Weather History Graph

Daily Weather History Graph

Search for Another Location

Airport:

Trip Planner

Search our weather history database for the weather conditions in past years. The results will help you decide how hot, cold, wet, or windy it might be!

Date:

Astronomy

Dec. 14, 2012 Rise Set
Actual Time 7:00 AM EST 5:37 PM EST
Civil Twilight 6:35 AM EST 6:02 PM EST
Nautical Twilight 6:07 AM EST 6:31 PM EST
Astronomical Twilight 5:39 AM EST 6:59 PM EST
Moon 8:09 AM EST (12/14) 7:21 PM EST (12/14)
Length of Visible Light 11h 26m
Length of Day
10h 37m
Waxing Crescent, 3% of the Moon is Illuminated
Dec 14
Waxing Crescent
Dec 20
First Quarter
Dec 28
Full
Jan 4
Last Quarter
Jan 11
New

Hourly Weather History & Observations

Time (EST) Temp. Dew Point Humidity Pressure Visibility Wind Dir Wind Speed Gust Speed Precip Events Conditions
12:48 AM 71.6 °F 64.4 °F 78% 30.07 in 10.0 mi North 9.2 mph - N/A   Overcast
12:53 AM 71.1 °F 64.0 °F 78% 30.07 in 10.0 mi NNE 8.1 mph - N/A   Overcast
1:53 AM 71.1 °F 64.0 °F 78% 30.06 in 10.0 mi NNE 11.5 mph - N/A   Overcast
2:53 AM 71.1 °F 64.9 °F 81% 30.05 in 10.0 mi NNE 13.8 mph - N/A   Overcast
3:53 AM 71.1 °F 64.9 °F 81% 30.04 in 10.0 mi NNE 11.5 mph - N/A   Overcast
4:53 AM 70.0 °F 64.9 °F 84% 30.05 in 10.0 mi NNE 10.4 mph - N/A   Overcast
5:53 AM 70.0 °F 64.0 °F 81% 30.06 in 10.0 mi NNE 10.4 mph - N/A   Overcast
6:53 AM 70.0 °F 64.0 °F 81% 30.08 in 10.0 mi North 9.2 mph - N/A   Overcast
7:53 AM 70.0 °F 64.0 °F 81% 30.09 in 10.0 mi North 10.4 mph - N/A   Overcast
8:53 AM 71.1 °F 64.9 °F 81% 30.10 in 10.0 mi NNE 9.2 mph - N/A   Overcast
9:53 AM 73.0 °F 64.9 °F 76% 30.12 in 10.0 mi NNE 10.4 mph 16.1 mph N/A   Mostly Cloudy
10:53 AM 75.9 °F 66.0 °F 71% 30.12 in 10.0 mi North 9.2 mph - N/A   Mostly Cloudy
11:07 AM 75.2 °F 64.4 °F 69% 30.11 in 10.0 mi NNE 10.4 mph - N/A   Mostly Cloudy
11:53 AM 75.0 °F 64.9 °F 71% 30.10 in 10.0 mi NNE 10.4 mph - N/A   Mostly Cloudy
12:53 PM 75.9 °F 64.9 °F 69% 30.07 in 10.0 mi NNE 11.5 mph - N/A   Overcast
1:53 PM 78.1 °F 64.9 °F 64% 30.06 in 10.0 mi NE 10.4 mph - N/A   Clear
2:53 PM 78.1 °F 64.9 °F 64% 30.05 in 10.0 mi NNE 10.4 mph - N/A   Mostly Cloudy
3:53 PM 78.1 °F 63.0 °F 60% 30.03 in 10.0 mi ENE 13.8 mph 20.7 mph N/A   Partly Cloudy
4:53 PM 77.0 °F 63.0 °F 62% 30.04 in 10.0 mi ENE 15.0 mph - N/A   Scattered Clouds
5:53 PM 75.9 °F 63.0 °F 64% 30.04 in 10.0 mi NE 18.4 mph 25.3 mph N/A   Mostly Cloudy
6:53 PM 75.0 °F 60.1 °F 60% 30.06 in 10.0 mi NE 15.0 mph - N/A   Clear
7:53 PM 75.0 °F 62.1 °F 64% 30.07 in 10.0 mi NE 12.7 mph - N/A   Clear
8:53 PM 75.0 °F 62.1 °F 64% 30.07 in 10.0 mi ENE 15.0 mph - N/A   Partly Cloudy
9:53 PM 75.0 °F 60.1 °F 60% 30.08 in 10.0 mi NE 16.1 mph - N/A   Clear
10:53 PM 73.9 °F 63.0 °F 68% 30.08 in 10.0 mi NE 12.7 mph - N/A   Clear
11:53 PM 73.9 °F 62.1 °F 66% 30.06 in 10.0 mi NE 12.7 mph - N/A   Clear